Regional Weather Roundup
Issued by NWS

Home | Current Version | Previous Version | Graphics & Text | Print | Product List | Glossary On
Versions: 1 2 3 4 5 6 7 8 9 10 11 12 13 14 15 16 17 18 19 20 21 22 23 24 25 26 27 28 29 30 31 32 33 34 35 36 37 38 39 40 41 42 43 44 45 46 47 48 49 50
000
ASUS43 KMPX 062001
RWRMN
WEATHER ROUNDUP FOR MINNESOTA
NATIONAL WEATHER SERVICE TWIN CITIES/CHANHASSEN MN
300 PM CDT WED MAY 06 2015


NOTE: "FAIR" INDICATES FEW OR NO CLOUDS BELOW 12,000 FEET WITH NO
SIGNIFICANT WEATHER AND/OR OBSTRUCTIONS TO VISIBILITY. N/A MEANS
CURRENT SKY AND/OR WEATHER CONDITIONS ARE NOT AVAILABLE.

MNZ060>063-068>070-062100-
   Twin Cities Metro

CITY           SKY/WX    TMP DP  RH WIND       PRES   REMARKS
TWIN CITIES    PTSUNNY   73  58  59 E21       29.92F
ST PAUL        CLOUDY    74  60  61 E14G20    29.93F
CRYSTAL        CLOUDY    75  58  55 SE13G22   29.91F
BLAINE         PTSUNNY   72  61  68 E12G21    29.94F
LAKEVILLE      PTSUNNY   75  59  57 SE15G24   29.91F
EDEN PRAIRIE   PTSUNNY   72  59  63 E14       29.89F
SOUTH ST PAUL  CLOUDY    74  57  56 SE10G17   29.93F
LAKE ELMO      FAIR      72  61  68 E10       29.96F
$$
MNZ001>005-007-008-013>017-022>024-027-028-062100-
   Northwest Minnesota

CITY           SKY/WX    TMP DP  RH WIND       PRES   REMARKS
BEMIDJI        RAIN      61  55  82 SE8       29.92F
HALLOCK        CLOUDY    66  61  82 SE18      29.83F
ROSEAU         CLOUDY    72  57  60 SE13      29.88S
WARROAD        CLOUDY    66  57  72 SE10      29.90F
THIEF RVR FALL CLOUDY    64  59  82 SE14      29.88S
CROOKSTON      RAIN      61  61 100 SE15      29.85F
FOSSTON        LGT RAIN  61  55  82 SE7       29.90S
DETROIT LAKES  CLOUDY    63  55  77 SE14      29.88F
MOORHEAD       LGT RAIN  63  61  94 E10       29.82F
PARK RAPIDS    CLOUDY    65  54  67 SE10      29.91F
MAHNOMEN       CLOUDY    63  56  80 SE12      29.88S
$$
MNZ006-009>011-018-025>026-062100-
   North Central Minnesota

CITY           SKY/WX    TMP DP  RH WIND       PRES   REMARKS
BAUDETTE       CLOUDY    66  55  67 SE14      29.92F
FLAG ISLAND    CLOUDY    55  52  88 S9        29.92S
INTL FALLS     CLOUDY    69  55  60 SE14G21   29.96F
WASKISH        LGT RAIN  68  55  64 SE8G20    29.92F
BIG FORK       CLOUDY    66  52  59 SE10      29.97S
LONGVILLE      CLOUDY    64  54  68 E6        29.94F
GRAND RAPIDS   CLOUDY    64  52  63 SE10      29.98F
CRANE LAKE     CLOUDY    66  52  59 S5        30.02F
ORR            CLOUDY    63  52  67 SE10G18   29.98F
COOK           CLOUDY    63  54  72 SE8       30.01F
WALKER         MOCLDY    62  54  74 E6        29.93F
$$
MNZ012-019>021-037-062100-
   Northeast Minnesota

CITY           SKY/WX    TMP DP  RH WIND       PRES   REMARKS
DULUTH         CLOUDY    58  50  75 E17       30.03F
ELY            CLOUDY    63  52  67 SE10      30.03F
HIBBING        CLOUDY    63  51  65 E13       30.00F
EVELETH        CLOUDY    57  52  82 E8        30.03F
DULUTH HARBOR  CLOUDY    45  39  81 E12       30.06F
TWO HARBORS    CLOUDY    59  46  63 E13       30.04F
SILVER BAY     CLOUDY    57  36  44 NE10      30.06F
GRAND MARAIS     N/A     49  30  48 NE7       30.10F
G MARAIS ARPRT PTSUNNY   59  45  58 SE7       30.12F
$$
MNZ029>031-032-039>041-046>048-054>057-064-062100-
   West Central Minnesota

CITY           SKY/WX    TMP DP  RH WIND       PRES   REMARKS
FERGUS FALLS   CLOUDY    66  57  72 E14G21    29.80F
WHEATON        CLOUDY    64  57  77 E23       29.78F
MORRIS         CLOUDY    70  57  64 E24G30    29.77F
ALEXANDRIA     CLOUDY    68  57  68 E18G26    29.84F
ELBOW LAKE     PTSUNNY   66  57  74 E20G26    29.79F
WADENA         CLOUDY    63  55  77 E15       29.88F
GLENWOOD       CLOUDY    70  57  64 E23G30    29.84F
APPLETON       LGT RAIN  72  57  60 SE14G23   29.76F
BENSON         CLOUDY    73  55  53 SE14G24   29.77F
ORTONVILLE     LGT RAIN  66  61  82 SE13      29.76F
MADISON        LGT RAIN  66  63  88 SE14      29.77S
WILLMAR        FAIR      75  55  50 SE23G37   29.81F
$$
MNZ033>034-036-042>043-049>051-058-059-062100-
   Central Minnesota

CITY           SKY/WX    TMP DP  RH WIND       PRES   REMARKS
ST CLOUD       PTSUNNY   71  57  61 E13G22    29.89F
SAUK CENTRE    FAIR      71  58  62 E22G28    29.85F
PAYNESVILLE    CLOUDY    71  57  61 NE18G25   29.84F
AITKIN         CLOUDY    72  55  56 SE9       29.94F
PINE RIVER     CLOUDY    64  55  72 SE10      29.96F
BRAINERD       CLOUDY    65  55  70 SE15      29.93F
STAPLES        CLOUDY    64  55  72 E9        29.90F
LONG PRAIRIE   FAIR      64  55  72 E15       29.88F
LITTLE FALLS   CLOUDY    72  54  53 E14G23    29.89F
LITCHFIELD     CLOUDY    77  61  57 E24G32    29.84F
BUFFALO        PTSUNNY   73  56  56 E17G24    29.89F
MAPLE LAKE     PTSUNNY   72  60  65 E15G22    29.89F
$$
MNZ037-044-045-052-053-062100-
   East Central Minnesota

CITY           SKY/WX    TMP DP  RH WIND       PRES   REMARKS
PRINCETON      CLOUDY    73  59  60 E9G16     29.93F
MORA           CLOUDY    70  55  60 E13       29.97F
CAMBRIDGE      CLOUDY    72  57  60 E13       29.93F
RUSH CITY      CLOUDY    72  57  60 E7        29.96F
MOOSE LAKE     CLOUDY    66  50  55 E8        29.97F
HINCKLEY       FAIR      70  55  60 E10G16    29.98F
CLOQUET        CLOUDY    59  48  67 E16       30.02F
MCGREGOR       CLOUDY    70  54  56 E12       29.97F
$$
MNZ071>073-080-081-089-090-097-098-062100-
   Southwest Minnesota

CITY           SKY/WX    TMP DP  RH WIND       PRES   REMARKS
MONTEVIDEO     LGT RAIN  66  63  88 S16G26    29.79R
GRANITE FALLS  CLOUDY    69  62  78 E25       29.80S
CANBY          CLOUDY    70  62  74 S23G31    29.77F
MARSHALL       CLOUDY    68  59  73 S21G31    29.77F
REDWOOD FALLS  RAIN      67  63  87 S20G37    29.82R FOG
OLIVIA         LGT RAIN  72  54  53 SE22G35   29.80F
PIPESTONE      PTSUNNY   64  63  94 S23G31    29.78S
WORTHINGTON    PTSUNNY   68  59  73 S25       29.80F
JACKSON        CLOUDY    72  59  64 S26G35    29.85F
TRACY          CLOUDY    70  64  80 S21G26    29.79F
SLAYTON        CLOUDY    67  63  86 SE24      29.79F
$$
MNZ065>067-074>077-082>085-091>093-062100-
   South Central Minnesota

CITY           SKY/WX    TMP DP  RH WIND       PRES   REMARKS
MANKATO        CLOUDY    77  57  50 SE25G43   29.85F
NEW ULM        PTSUNNY   75  55  50 SE23G31   29.81F
ST JAMES       TSTM      64  63  94 S23       29.86R
FAIRMONT       PTSUNNY   70  43  37 S22       29.84S
GLENCOE        PTSUNNY   81  59  47 SE18G33   29.85F
FARIBAULT      PTSUNNY   77  57  50 SE24      29.91F
OWATONNA       PTSUNNY   75  57  53 SE23G32   29.91F
WASECA         PTSUNNY   73  59  60 SE26G33   29.89F
ALBERT LEA     PTSUNNY   73  61  64 SE14G28   29.90F
$$
MNZ078>079-086>088-094>096-062100-
   Southeast Minnesota

CITY           SKY/WX    TMP DP  RH WIND       PRES   REMARKS
ROCHESTER      CLOUDY    71  60  68 SE21      29.97F
RED WING       CLOUDY    73  59  60 SE12      29.96F
STANTON        PTSUNNY   76  58  53 SE13G23   29.91F
DODGE CENTER   PTSUNNY   75  57  53 SE25G32   29.94F
WINONA         CLOUDY    73  61  64 E12       30.00F
AUSTIN         CLOUDY    72  63  73 SE18G24   29.92F
PRESTON        CLOUDY    72  58  61 SE15      29.99F
$$
ABBREVIATIONS USED IN REMARKS
   TC - TEMPERATURES IN CELSIUS
  WCI - WIND CHILL INDEX
   HX - HEAT INDEX
  VSB - VISIBILITY
$$


USA.gov is the U.S. government's official web portal to all federal, state and local government web resources and services.